Regional Weather Roundup
Issued by NWS

Home | Current Version | Previous Version | Text Only | Print | Product List | Glossary On
Versions: 1 2 3 4 5 6 7 8 9 10 11 12 13 14 15 16 17 18 19 20 21 22 23 24 25 26 27
000
ASCA42 TJSJ 260010
RWRPR
PUERTO RICO/U.S. VIRGIN ISLANDS HOURLY WEATHER ROUNDUP
NATIONAL WEATHER SERVICE SAN JUAN PR
800 PM AST SUN SEP 25 2016

PRZ001>002-007>008-010-260100-
PUERTO RICO

CITY           SKY/WX    TMP DP  RH WIND       PRES   REMARKS
SAN JUAN LMM   PTCLDY    82  77  83 E8        29.96R HX  91
AGUADILLA      PTCLDY    81  73  78 CALM      29.97R
CEIBA          PTCLDY    82  75  78 NE6       29.97R
$$

VIZ001>002-260100-
U.S. VIRGIN ISLANDS

CITY           SKY/WX    TMP DP  RH WIND       PRES   REMARKS
CHARLOTTE AMA  CLEAR     84  75  74 NE8       29.95R HX  92
CHRISTIANSTED  CLEAR     75  75 100 N5        29.97R
$$

HOURLY WEATHER ROUNDUP FOR THE NEWS MEDIA

CITY           SKY/WX    TMP DP  RH WIND       PRES   REMARKS
ORLANDO        CLEAR     80  73  79 E7        29.99R
NEW YORK       PTCLDY    63  37  38 NE5       30.16R
NEWARK         PTCLDY    67  36  31 NW6       30.15R
CHICAGO        CLOUDY    76  69  79 CALM      29.90R
HARTFORD       CLEAR     50  43  77 W3        30.13R
BOSTON         CLEAR     60  34  37 N8        30.14R
DALLAS         CLOUDY    78  73  84 N6        30.03S
PHILADELPHIA   PTCLDY    70  40  33 NW7       30.16R
LOS ANGELES    SUNNY     81  54  39 W13       29.89F
WASHINGTON DC  PTCLDY    63  51  65 CALM      30.15S



USA.gov is the U.S. government's official web portal to all federal, state and local government web resources and services.